Time,TemperatureF,DewpointF,PressureIn,WindDirection,WindDirectionDegrees,WindSpeedMPH,WindSpeedGustMPH,Humidity,HourlyPrecipIn,Conditions,Clouds,dailyrainin,SoftwareType,DateUTC
2013-05-24 00:06:00,38.5,33.2,30.27,NE,54,4.8,7.0,81,0.00,,,0.00,WUHU216HW,2013-05-24 05:06:00,
2013-05-24 00:16:00,38.3,33.0,30.27,NE,53,4.0,5.5,81,0.00,,,0.00,WUHU216HW,2013-05-24 05:16:00,
2013-05-24 00:26:00,38.5,33.5,30.27,NE,52,5.1,8.3,82,0.00,,,0.00,WUHU216HW,2013-05-24 05:26:00,
2013-05-24 00:36:00,38.1,33.1,30.28,NNE,28,1.7,4.1,82,0.00,,,0.00,WUHU216HW,2013-05-24 05:36:00,
2013-05-24 00:46:00,37.9,33.5,30.28,North,0,0.6,0.9,84,0.00,,,0.00,WUHU216HW,2013-05-24 05:46:00,
2013-05-24 00:56:00,37.4,32.7,30.28,NE,34,2.0,3.9,83,0.00,,,0.00,WUHU216HW,2013-05-24 05:56:00,
2013-05-24 01:06:00,37.2,33.1,30.28,NE,36,3.0,4.4,85,0.00,,,0.00,WUHU216HW,2013-05-24 06:06:00,
2013-05-24 01:16:00,37.2,32.8,30.27,NE,36,3.9,5.2,84,0.00,,,0.00,WUHU216HW,2013-05-24 06:16:00,
2013-05-24 01:26:00,37.4,32.7,30.27,NE,50,3.3,5.2,83,0.00,,,0.00,WUHU216HW,2013-05-24 06:26:00,
2013-05-24 01:36:00,37.0,32.0,30.28,ENE,58,2.5,3.5,82,0.00,,,0.00,WUHU216HW,2013-05-24 06:36:00,
2013-05-24 01:46:00,36.9,31.9,30.28,NE,40,1.7,3.5,82,0.00,,,0.00,WUHU216HW,2013-05-24 06:46:00,
2013-05-24 01:56:00,36.9,32.2,30.28,NNE,22,1.2,1.8,83,0.00,,,0.00,WUHU216HW,2013-05-24 06:56:00,
2013-05-24 02:06:00,36.5,31.8,30.28,NE,36,1.4,2.5,83,0.00,,,0.00,WUHU216HW,2013-05-24 07:06:00,
2013-05-24 02:16:00,36.3,31.6,30.28,NE,43,2.4,3.0,83,0.00,,,0.00,WUHU216HW,2013-05-24 07:16:00,
2013-05-24 02:26:00,36.1,31.4,30.28,NNE,32,1.3,2.5,83,0.00,,,0.00,WUHU216HW,2013-05-24 07:26:00,
2013-05-24 02:36:00,35.8,31.4,30.29,NNE,16,1.1,1.8,84,0.00,,,0.00,WUHU216HW,2013-05-24 07:36:00,
2013-05-24 02:46:00,35.6,31.2,30.29,North,10,0.8,1.1,84,0.00,,,0.00,WUHU216HW,2013-05-24 07:46:00,
2013-05-24 02:56:00,35.2,31.1,30.29,NNE,32,1.4,2.5,85,0.00,,,0.00,WUHU216HW,2013-05-24 07:56:00,
2013-05-24 03:06:00,35.4,31.3,30.29,North,9,1.6,2.5,85,0.00,,,0.00,WUHU216HW,2013-05-24 08:06:00,
2013-05-24 03:16:00,35.4,31.3,30.29,NNE,18,1.3,3.0,85,0.00,,,0.00,WUHU216HW,2013-05-24 08:16:00,
2013-05-24 03:26:00,35.4,31.3,30.29,NE,35,1.2,2.2,85,0.00,,,0.00,WUHU216HW,2013-05-24 08:26:00,
2013-05-24 03:36:00,34.9,30.5,30.29,NE,50,1.7,2.8,84,0.00,,,0.00,WUHU216HW,2013-05-24 08:36:00,
2013-05-24 03:46:00,34.5,30.4,30.30,NNE,24,1.0,2.0,85,0.00,,,0.00,WUHU216HW,2013-05-24 08:46:00,
2013-05-24 03:56:00,34.7,30.6,30.29,NNE,15,0.9,1.8,85,0.00,,,0.00,WUHU216HW,2013-05-24 08:56:00,
2013-05-24 04:06:00,34.2,29.9,30.30,NNE,24,0.8,1.1,84,0.00,,,0.00,WUHU216HW,2013-05-24 09:06:00,
2013-05-24 04:16:00,33.8,29.7,30.30,North,0,0.4,0.4,85,0.00,,,0.00,WUHU216HW,2013-05-24 09:16:00,
2013-05-24 04:26:00,33.4,29.4,30.31,North,0,0.6,0.7,85,0.00,,,0.00,WUHU216HW,2013-05-24 09:26:00,
2013-05-24 04:36:00,32.7,28.7,30.31,North,0,0.0,0.0,85,0.00,,,0.00,WUHU216HW,2013-05-24 09:36:00,
2013-05-24 04:46:00,32.5,28.7,30.31,North,0,0.7,1.1,86,0.00,,,0.00,WUHU216HW,2013-05-24 09:46:00,
2013-05-24 04:56:00,32.5,28.7,30.31,North,352,0.6,0.7,86,0.00,,,0.00,WUHU216HW,2013-05-24 09:56:00,
2013-05-24 05:06:00,33.1,29.9,30.32,North,6,0.8,1.6,88,0.00,,,0.00,WUHU216HW,2013-05-24 10:06:00,
2013-05-24 05:16:00,33.1,29.6,30.32,NNE,18,0.6,0.9,87,0.00,,,0.00,WUHU216HW,2013-05-24 10:16:00,
2013-05-24 05:26:00,32.7,28.9,30.32,NE,47,1.2,2.5,86,0.00,,,0.00,WUHU216HW,2013-05-24 10:26:00,
2013-05-24 05:36:00,33.1,29.6,30.32,NE,53,1.5,2.5,87,0.00,,,0.00,WUHU216HW,2013-05-24 10:36:00,
2013-05-24 05:46:00,33.8,30.6,30.32,NE,38,1.3,2.0,88,0.00,,,0.00,WUHU216HW,2013-05-24 10:46:00,
2013-05-24 05:57:00,34.9,31.4,30.32,NNE,30,1.4,1.8,87,0.00,,,0.00,WUHU216HW,2013-05-24 10:57:00,
2013-05-24 06:07:00,35.6,32.1,30.32,NE,43,1.0,1.6,87,0.00,,,0.00,WUHU216HW,2013-05-24 11:07:00,
2013-05-24 06:17:00,36.3,32.2,30.33,NNE,16,1.0,1.8,85,0.00,,,0.00,WUHU216HW,2013-05-24 11:17:00,
2013-05-24 06:27:00,37.2,32.5,30.33,NNE,14,1.0,1.6,83,0.00,,,0.00,WUHU216HW,2013-05-24 11:27:00,
2013-05-24 06:37:00,38.1,33.1,30.33,NNE,17,1.3,2.0,82,0.00,,,0.00,WUHU216HW,2013-05-24 11:37:00,
2013-05-24 06:47:00,39.0,33.1,30.33,NE,35,2.9,6.4,79,0.00,,,0.00,WUHU216HW,2013-05-24 11:47:00,
2013-05-24 06:57:00,40.1,34.4,30.34,NE,39,2.4,4.1,80,0.01,,,0.01,WUHU216HW,2013-05-24 11:57:00,
2013-05-24 07:07:00,41.2,34.6,30.34,NNE,32,3.5,8.3,77,0.01,,,0.01,WUHU216HW,2013-05-24 12:07:00,
2013-05-24 07:17:00,42.4,34.8,30.34,NE,34,5.0,6.8,74,0.01,,,0.01,WUHU216HW,2013-05-24 12:17:00,
2013-05-24 07:27:00,44.6,35.9,30.35,NNE,27,3.6,5.5,71,0.01,,,0.01,WUHU216HW,2013-05-24 12:27:00,
2013-05-24 07:37:00,46.0,35.0,30.36,NNE,20,2.1,6.8,65,0.01,,,0.01,WUHU216HW,2013-05-24 12:37:00,
2013-05-24 07:47:00,48.0,35.3,30.36,NE,40,4.6,6.1,61,0.01,,,0.01,WUHU216HW,2013-05-24 12:47:00,
2013-05-24 07:57:00,48.0,33.5,30.36,NE,34,4.1,5.7,57,0.00,,,0.01,WUHU216HW,2013-05-24 12:57:00,
2013-05-24 08:07:00,48.7,33.3,30.36,NE,44,4.8,6.8,55,0.00,,,0.01,WUHU216HW,2013-05-24 13:07:00,
2013-05-24 08:17:00,49.3,32.9,30.37,NE,42,3.5,5.0,53,0.00,,,0.01,WUHU216HW,2013-05-24 13:17:00,
2013-05-24 08:27:00,48.9,33.9,30.38,NE,48,4.6,7.0,56,0.00,,,0.01,WUHU216HW,2013-05-24 13:27:00,
2013-05-24 08:37:00,50.9,34.4,30.38,ENE,57,4.0,7.5,53,0.00,,,0.01,WUHU216HW,2013-05-24 13:37:00,
2013-05-24 08:47:00,49.8,32.4,30.39,North,8,1.9,3.2,51,0.00,,,0.01,WUHU216HW,2013-05-24 13:47:00,
2013-05-24 08:57:00,51.1,35.1,30.40,NNW,337,1.4,2.8,54,0.00,,,0.01,WUHU216HW,2013-05-24 13:57:00,
2013-05-24 09:07:00,51.8,35.2,30.40,NNW,347,1.8,3.5,53,0.00,,,0.01,WUHU216HW,2013-05-24 14:07:00,
2013-05-24 09:17:00,50.4,32.9,30.39,North,356,2.8,7.3,51,0.00,,,0.01,WUHU216HW,2013-05-24 14:17:00,
2013-05-24 09:27:00,51.6,34.6,30.40,NE,37,2.3,5.0,52,0.00,,,0.01,WUHU216HW,2013-05-24 14:27:00,
2013-05-24 09:37:00,53.1,34.4,30.39,NE,42,2.0,7.8,49,0.00,,,0.01,WUHU216HW,2013-05-24 14:37:00,
2013-05-24 09:47:00,52.3,34.2,30.39,NE,37,3.4,6.6,50,0.00,,,0.01,WUHU216HW,2013-05-24 14:47:00,
2013-05-24 09:57:00,53.1,36.9,30.39,NW,315,1.5,3.0,54,0.00,,,0.01,WUHU216HW,2013-05-24 14:57:00,
2013-05-24 10:07:00,51.8,34.2,30.39,North,9,2.6,5.7,51,0.00,,,0.01,WUHU216HW,2013-05-24 15:07:00,
2013-05-24 10:17:00,52.3,34.7,30.39,North,354,2.3,4.4,51,0.00,,,0.01,WUHU216HW,2013-05-24 15:17:00,
2013-05-24 10:27:00,52.9,35.3,30.39,NE,38,2.2,4.8,51,0.00,,,0.01,WUHU216HW,2013-05-24 15:27:00,
2013-05-24 10:37:00,52.7,34.0,30.38,NNE,17,3.7,7.8,49,0.00,,,0.01,WUHU216HW,2013-05-24 15:37:00,
2013-05-24 10:47:00,54.0,36.8,30.38,ENE,66,2.5,4.1,52,0.00,,,0.01,WUHU216HW,2013-05-24 15:47:00,
2013-05-24 10:57:00,54.0,36.3,30.38,North,3,2.7,4.8,51,0.00,,,0.01,WUHU216HW,2013-05-24 15:57:00,
2013-05-24 11:07:00,54.5,37.7,30.38,North,354,1.9,3.0,53,0.00,,,0.01,WUHU216HW,2013-05-24 16:07:00,
2013-05-24 11:17:00,55.0,36.7,30.38,North,358,2.1,3.9,50,0.00,,,0.01,WUHU216HW,2013-05-24 16:17:00,
2013-05-24 11:27:00,55.6,36.7,30.38,NNE,32,2.6,5.5,49,0.00,,,0.01,WUHU216HW,2013-05-24 16:27:00,
2013-05-24 11:37:00,55.8,36.4,30.38,NNW,342,3.1,7.8,48,0.00,,,0.01,WUHU216HW,2013-05-24 16:37:00,
2013-05-24 11:47:00,56.5,37.0,30.38,NNW,347,3.1,5.0,48,0.00,,,0.01,WUHU216HW,2013-05-24 16:47:00,
2013-05-24 11:57:00,57.7,39.7,30.38,NE,45,3.2,6.6,51,0.00,,,0.01,WUHU216HW,2013-05-24 16:57:00,
2013-05-24 12:07:00,56.1,36.1,30.37,NNW,346,2.4,5.2,47,0.00,,,0.01,WUHU216HW,2013-05-24 17:07:00,
2013-05-24 12:17:00,56.5,38.6,30.37,NNW,341,2.2,3.9,51,0.00,,,0.01,WUHU216HW,2013-05-24 17:17:00,
2013-05-24 12:27:00,56.3,36.8,30.36,North,1,3.5,6.4,48,0.00,,,0.01,WUHU216HW,2013-05-24 17:27:00,
2013-05-24 12:37:00,56.5,36.5,30.36,NNW,338,1.7,3.5,47,0.00,,,0.01,WUHU216HW,2013-05-24 17:37:00,
2013-05-24 12:47:00,56.8,38.4,30.37,NW,321,1.7,3.7,50,0.00,,,0.01,WUHU216HW,2013-05-24 17:47:00,
2013-05-24 12:57:00,57.0,39.6,30.36,NNW,333,2.7,4.6,52,0.00,,,0.01,WUHU216HW,2013-05-24 17:57:00,
2013-05-24 13:07:00,56.7,36.6,30.36,NNW,343,3.0,4.4,47,0.00,,,0.01,WUHU216HW,2013-05-24 18:07:00,
2013-05-24 13:17:00,57.2,39.2,30.35,NNW,342,1.8,3.2,51,0.00,,,0.01,WUHU216HW,2013-05-24 18:17:00,
2013-05-24 13:27:00,57.7,39.2,30.35,NW,319,1.8,4.1,50,0.00,,,0.01,WUHU216HW,2013-05-24 18:27:00,
2013-05-24 13:37:00,57.4,37.8,30.35,NNW,346,2.5,5.0,48,0.00,,,0.01,WUHU216HW,2013-05-24 18:37:00,
2013-05-24 13:47:00,58.1,37.4,30.35,NNW,343,2.2,4.1,46,0.00,,,0.01,WUHU216HW,2013-05-24 18:47:00,
2013-05-24 13:57:00,58.3,37.5,30.34,NE,54,3.0,5.7,46,0.00,,,0.01,WUHU216HW,2013-05-24 18:57:00,
2013-05-24 14:07:00,58.1,37.9,30.34,North,11,2.9,12.8,47,0.00,,,0.01,WUHU216HW,2013-05-24 19:07:00,
2013-05-24 14:17:00,59.0,38.7,30.33,NE,50,3.5,8.5,47,0.00,,,0.01,WUHU216HW,2013-05-24 19:17:00,
2013-05-24 14:27:00,59.0,39.3,30.33,NNW,335,2.2,3.7,48,0.00,,,0.01,WUHU216HW,2013-05-24 19:27:00,
2013-05-24 14:37:00,59.4,39.1,30.33,ENE,65,4.6,6.4,47,0.00,,,0.01,WUHU216HW,2013-05-24 19:37:00,
2013-05-24 14:47:00,59.4,38.5,30.33,NNE,26,2.4,4.1,46,0.00,,,0.01,WUHU216HW,2013-05-24 19:47:00,
2013-05-24 14:57:00,59.0,36.4,30.32,NNE,15,3.0,7.0,43,0.00,,,0.01,WUHU216HW,2013-05-24 19:57:00,
2013-05-24 15:07:00,59.2,37.8,30.32,NE,49,4.5,6.6,45,0.00,,,0.01,WUHU216HW,2013-05-24 20:07:00,
2013-05-24 15:17:00,59.2,37.8,30.31,NNE,30,3.1,6.4,45,0.00,,,0.01,WUHU216HW,2013-05-24 20:17:00,
2013-05-24 15:27:00,59.4,37.4,30.31,NE,55,2.6,5.2,44,0.00,,,0.01,WUHU216HW,2013-05-24 20:27:00,
2013-05-24 15:38:00,60.1,40.3,30.30,East,87,2.2,5.0,48,0.00,,,0.01,WUHU216HW,2013-05-24 20:38:00,
2013-05-24 15:48:00,60.1,43.5,30.30,East,84,3.9,5.7,54,0.00,,,0.01,WUHU216HW,2013-05-24 20:48:00,
2013-05-24 15:58:00,59.7,43.1,30.30,East,97,5.1,8.9,54,0.00,,,0.01,WUHU216HW,2013-05-24 20:58:00,
2013-05-24 16:08:00,59.5,42.4,30.30,East,91,4.6,7.3,53,0.00,,,0.01,WUHU216HW,2013-05-24 21:08:00,
2013-05-24 16:18:00,59.5,43.4,30.30,East,88,2.6,5.5,55,0.00,,,0.01,WUHU216HW,2013-05-24 21:18:00,
2013-05-24 16:28:00,59.0,42.4,30.29,East,95,4.2,8.5,54,0.00,,,0.01,WUHU216HW,2013-05-24 21:28:00,
2013-05-24 16:38:00,58.5,42.5,30.29,ESE,120,2.7,4.4,55,0.00,,,0.01,WUHU216HW,2013-05-24 21:38:00,
2013-05-24 16:48:00,58.3,42.3,30.28,SE,130,3.2,6.4,55,0.00,,,0.01,WUHU216HW,2013-05-24 21:48:00,
2013-05-24 16:58:00,58.1,42.1,30.28,East,84,4.2,6.4,55,0.00,,,0.01,WUHU216HW,2013-05-24 21:58:00,
2013-05-24 17:08:00,57.6,41.6,30.28,NE,55,4.5,10.9,55,0.00,,,0.01,WUHU216HW,2013-05-24 22:08:00,
2013-05-24 17:18:00,56.7,40.3,30.28,ENE,74,7.3,10.0,54,0.00,,,0.01,WUHU216HW,2013-05-24 22:18:00,
2013-05-24 17:28:00,56.8,40.9,30.28,ESE,108,3.8,6.4,55,0.00,,,0.01,WUHU216HW,2013-05-24 22:28:00,
2013-05-24 17:38:00,56.1,39.7,30.28,ENE,59,4.9,8.7,54,0.00,,,0.01,WUHU216HW,2013-05-24 22:38:00,
2013-05-24 17:48:00,55.8,39.9,30.28,East,97,4.5,9.1,55,0.00,,,0.01,WUHU216HW,2013-05-24 22:48:00,
2013-05-24 17:58:00,55.6,40.2,30.28,ENE,71,5.2,9.6,56,0.00,,,0.01,WUHU216HW,2013-05-24 22:58:00,
2013-05-24 18:08:00,55.2,39.8,30.28,SSE,154,2.7,3.9,56,0.00,,,0.01,WUHU216HW,2013-05-24 23:08:00,
2013-05-24 18:18:00,54.9,40.5,30.28,ENE,68,2.4,5.0,58,0.00,,,0.01,WUHU216HW,2013-05-24 23:18:00,
2013-05-24 18:28:00,54.1,39.3,30.27,East,80,4.3,7.5,57,0.00,,,0.01,WUHU216HW,2013-05-24 23:28:00,
2013-05-24 18:38:00,53.8,39.5,30.28,ESE,108,3.1,6.4,58,0.00,,,0.01,WUHU216HW,2013-05-24 23:38:00,
2013-05-24 18:48:00,53.2,38.9,30.28,East,100,4.0,6.4,58,0.00,,,0.01,WUHU216HW,2013-05-24 23:48:00,
2013-05-24 18:58:00,52.5,38.2,30.28,ENE,77,4.3,7.8,58,0.00,,,0.01,WUHU216HW,2013-05-24 23:58:00,
2013-05-24 19:08:00,52.0,37.8,30.28,ENE,78,3.7,4.8,58,0.00,,,0.01,WUHU216HW,2013-05-25 00:08:00,
2013-05-24 19:18:00,51.1,37.4,30.29,East,80,3.6,6.8,59,0.00,,,0.01,WUHU216HW,2013-05-25 00:18:00,
2013-05-24 19:28:00,50.2,36.9,30.29,East,88,4.6,6.6,60,0.00,,,0.01,WUHU216HW,2013-05-25 00:28:00,
2013-05-24 19:38:00,49.3,36.5,30.29,East,100,2.2,3.9,61,0.00,,,0.01,WUHU216HW,2013-05-25 00:38:00,
2013-05-24 19:48:00,48.9,36.5,30.30,East,81,1.8,4.1,62,0.00,,,0.01,WUHU216HW,2013-05-25 00:48:00,
2013-05-24 19:58:00,48.4,36.1,30.30,ENE,74,2.3,4.4,62,0.00,,,0.01,WUHU216HW,2013-05-25 00:58:00,
2013-05-24 20:08:00,47.5,35.6,30.30,ESE,108,1.6,2.8,63,0.00,,,0.01,WUHU216HW,2013-05-25 01:08:00,
2013-05-24 20:18:00,46.8,35.0,30.30,East,100,1.4,2.5,63,0.00,,,0.01,WUHU216HW,2013-05-25 01:18:00,
2013-05-24 20:28:00,46.0,34.6,30.30,ENE,74,1.6,3.7,64,0.00,,,0.01,WUHU216HW,2013-05-25 01:28:00,
2013-05-24 20:38:00,45.3,34.3,30.31,ENE,71,1.4,2.8,65,0.00,,,0.01,WUHU216HW,2013-05-25 01:38:00,
2013-05-24 20:48:00,44.6,34.0,30.32,East,89,1.2,2.8,66,0.00,,,0.01,WUHU216HW,2013-05-25 01:48:00,
2013-05-24 20:58:00,44.2,34.0,30.32,East,101,1.0,1.6,67,0.00,,,0.01,WUHU216HW,2013-05-25 01:58:00,
2013-05-24 21:08:00,43.9,33.7,30.31,ESE,111,1.1,2.5,67,0.00,,,0.01,WUHU216HW,2013-05-25 02:08:00,
2013-05-24 21:18:00,43.5,33.7,30.31,East,99,1.1,2.5,68,0.00,,,0.01,WUHU216HW,2013-05-25 02:18:00,
2013-05-24 21:28:00,43.2,33.8,30.31,SE,129,0.6,0.9,69,0.00,,,0.01,WUHU216HW,2013-05-25 02:28:00,
2013-05-24 21:38:00,42.6,33.2,30.31,East,94,1.2,2.2,69,0.00,,,0.01,WUHU216HW,2013-05-25 02:38:00,
2013-05-24 21:48:00,42.4,33.4,30.31,NE,45,0.5,0.7,70,0.00,,,0.01,WUHU216HW,2013-05-25 02:48:00,
2013-05-24 21:58:00,41.9,33.3,30.32,ENE,74,1.1,2.0,71,0.00,,,0.01,WUHU216HW,2013-05-25 02:58:00,
2013-05-24 22:08:00,41.5,32.5,30.32,East,83,0.6,0.9,70,0.00,,,0.01,WUHU216HW,2013-05-25 03:08:00,
2013-05-24 22:18:00,41.4,32.8,30.33,ENE,58,1.7,3.0,71,0.00,,,0.01,WUHU216HW,2013-05-25 03:18:00,
2013-05-24 22:28:00,41.5,32.9,30.33,East,82,1.6,2.5,71,0.00,,,0.01,WUHU216HW,2013-05-25 03:28:00,
2013-05-24 22:38:00,41.7,33.1,30.32,ENE,65,1.2,2.0,71,0.00,,,0.01,WUHU216HW,2013-05-25 03:38:00,
2013-05-24 22:48:00,41.7,33.1,30.32,ENE,63,1.1,1.8,71,0.00,,,0.01,WUHU216HW,2013-05-25 03:48:00,
2013-05-24 22:58:00,41.7,33.1,30.32,ENE,68,0.9,1.8,71,0.00,,,0.01,WUHU216HW,2013-05-25 03:58:00,
2013-05-24 23:08:00,41.7,33.1,30.32,East,87,1.2,2.5,71,0.00,,,0.01,WUHU216HW,2013-05-25 04:08:00,
2013-05-24 23:18:00,41.7,33.1,30.33,East,93,1.4,2.2,71,0.00,,,0.01,WUHU216HW,2013-05-25 04:18:00,
2013-05-24 23:28:00,41.7,33.1,30.32,East,86,1.7,2.5,71,0.00,,,0.01,WUHU216HW,2013-05-25 04:28:00,
2013-05-24 23:39:00,41.9,33.3,30.31,ENE,73,2.6,3.5,71,0.00,,,0.01,WUHU216HW,2013-05-25 04:39:00,
2013-05-24 23:49:00,42.3,33.6,30.31,East,90,2.2,3.2,71,0.00,,,0.01,WUHU216HW,2013-05-25 04:49:00,
2013-05-24 23:59:00,42.4,33.4,30.32,East,85,2.2,3.2,70,0.00,,,0.01,WUHU216HW,2013-05-25 04:59:00,